Weather in Xiaogan

China     30°55′30″N   113°54′42″E
temp.,
°C
wind,
m/s
gust,
m/s
humid.,
%
clouds,
%
prec.,
mm/h
press.,
hPa
HPBL,
m
11 april, sun
sun1123:00+16nw1167100 0.0 102211
02:00+15sse117293 0.0 102011
05:00+15ese0177100 0.1 102012
08:00+16ese3678100 0.1 1021395
11:00+14ese3791100 1.6 1021443
14:00+13ene3593100 5.8 1019334
17:00+13ene3595100 2.9 1018321
20:00+13ne2495100 3.9 1019206
12 april, mon
mon1223:00+13nne1296100 1.8 1020125
02:00+13nw2396100 1.9 1018139
05:00+12nnw2296100 0.0 101827
08:00+14nw3389100 0.0 1019255
11:00+17nw2375100 0.0 1019644
14:00+19wnw3366100 0.0 10171096
17:00+20sw226795 0.0 1016522
20:00+17ssw3480100 0.0 1017110
13 april, tue
tue1323:00+14sw23930 0.0 101972
02:00+13wsw12940 0.0 101814
05:00+13wnw1194100 0.0 101810
08:00+16ssw1185100 0.0 1020180
11:00+20ne2371100 0.0 1020677
14:00+23ne3453100 0.1 10171760
17:00+22ne4659100 0.0 1016437
20:00+18nne377699 0.0 1018140
14 april, wed
wed1423:00+17nne3877100 0.0 1019235
02:00+15n3687100 0.0 1018137
05:00+15nne3589100 0.0 1017157
08:00+16nne3487100 0.4 1019219
11:00+19ene2271100 0.1 1020768
14:00+19nw1173100 2.4 1017254
17:00+18wnw1284100 2.2 101697
20:00+16s1193100 4.7 101752
15 april, thu
thu1523:00+16ssw239699 0.7 1018150
02:00+15nw2296100 0.7 101778
05:00+15sse0096100 0.0 101617
08:00+15s2396100 0.1 1017181
11:00+16wnw1295100 0.9 1017153
14:00+17wsw2285100 1.1 1016439
17:00+19sw2273100 0.0 1014675
20:00+17ssw22887 0.0 101729